Regional Weather Roundup
Issued by NWS

Home | Current Version | Previous Version | Graphics & Text | Print | Product List | Glossary On
Versions: 1 2 3 4 5 6 7 8 9 10 11 12 13 14 15 16 17 18 19 20 21 22 23 24 25 26 27 28 29 30 31 32 33 34 35 36 37 38 39 40 41 42 43 44 45 46 47 48 49 50
000
ASUS43 KDMX 251907
RWRIA

WEATHER ROUNDUP FOR IOWA
NATIONAL WEATHER SERVICE DES MOINES IA
100 PM CST SUN JAN 25 2015

NOTE: "FAIR" INDICATES FEW OR NO CLOUDS BELOW 12,000 FEET WITH NO
SIGNIFICANT WEATHER AND/OR OBSTRUCTIONS TO VISIBILITY.

* - THESE STATIONS ARE NOT NWS STATIONS...THUS NOT UNDER NWS
QUALITY CONTROL.  THEY ALSO DO NOT REPORT WEATHER SUCH
AS PRECIPITATION OR FOG.

IAZ001>003-012>014-020>022-031>034-043>046-252000-
   NORTHWEST IOWA

CITY           SKY/WX    TMP DP  RH WIND       PRES   REMARKS
CARROLL *      CLOUDY    34  32  93 N15       29.95R WCI  24
CHEROKEE *     CLOUDY    34  32  93 N8        30.00R WCI  27
DENISON *      CLOUDY    37  34  87 N13G18    29.97R WCI  29
LE MARS *      CLOUDY    36  34  93 N7        30.02S WCI  30
ORANGE CITY *  CLOUDY    36  30  80 N5        30.00S WCI  32
SHELDON *      CLOUDY    34  34 100 NE9G16    29.99R WCI  26
SIOUX CITY     CLOUDY    38  34  85 N12       30.02R WCI  30
SPENCER        CLOUDY    33  27  78 N10       29.99S WCI  25
STORM LAKE *   CLOUDY    32  30  93 N10       29.99R WCI  24
$$

IAZ055>058-069>071-079>083-090>094-252000-
   SOUTHWEST IOWA

CITY           SKY/WX    TMP DP  RH WIND       PRES   REMARKS
ATLANTIC *     CLOUDY    36  32  87 N18G25    29.94R WCI  25
AUDUBON *      MOSUNNY   36  30  80 N15       29.95S WCI  26
CLARINDA *     CLOUDY    37  34  87 N16G23    29.93S WCI  28
COUNCIL BLFS * CLOUDY    37  36  93 N16G23    29.96R WCI  28
CRESTON *      CLOUDY    34  34 100 N22G30    29.90R WCI  22
HARLAN  *      CLOUDY    36  36 100 N15G22    29.99R WCI  26
LAMONI         CLOUDY    34  31  88 N17G25    29.86R WCI  23
RED OAK *      CLOUDY    39  34  81 N21G28    29.95R WCI  29
SHENANDOAH *   CLOUDY    37  34  87 N20       29.96R WCI  27
$$

IAZ047>049-059>061-072>074-084-252000-
   CENTRAL IOWA

CITY           SKY/WX    TMP DP  RH WIND       PRES   REMARKS
AMES           CLOUDY    34  29  82 NE16      29.93S WCI  24
ANKENY *       CLOUDY    34  30  86 N17       29.93R WCI  23
CHARITON *     LGT RAIN  32  30  93 N15G24    29.88R WCI  22
DES MOINES     CLOUDY    34  29  82 NE12      29.92S WCI  25
GRINNELL*      CLOUDY    30  27  86 N15G22    29.90R WCI  19
KNOXVILLE *    CLOUDY    30  27  86 NE18      29.88R WCI  18
MARSHALLTOWN   CLOUDY    30  25  81 NE20      29.91S WCI  17
PELLA *        MIX PCPN  32  28  86 N14G21    29.91R WCI  22
PERRY *          N/A     36  32  87 N16G22    29.93F WCI  26
$$

IAZ004>006-015-016-023>025-035-036-252000-
   NORTH CENTRAL IOWA

CITY           SKY/WX    TMP DP  RH WIND       PRES   REMARKS
ALGONA *       CLOUDY    32  30  93 N13       29.99R WCI  22
CLARION *      CLOUDY    32  32 100 NE14      29.95S WCI  22
ESTHERVILLE    CLOUDY    28  26  92 N14       29.99R WCI  17
FORT DODGE *   CLOUDY    32  27  80 N9        29.97S WCI  24
MASON CITY     CLOUDY    30  27  88 NE13      29.97S WCI  20
FOREST CITY *  CLOUDY    30  28  93 N8        29.97R WCI  23
IOWA FALLS *   CLOUDY    32  27  80 N15       29.94S WCI  22
$$

IAZ007>011-017>019-026>030-037>042-050>054-066-252000-
   NORTHEAST IOWA

CITY           SKY/WX    TMP DP  RH WIND       PRES   REMARKS
CEDAR RAPIDS   CLOUDY    28  23  81 NE24      29.87R WCI  14
CHARLES CITY * CLOUDY    30  28  93 NE10      29.95S WCI  21
CLINTON *      CLOUDY    30  25  80 NE18      29.86S WCI  18
DECORAH *      CLOUDY    27  19  74 N10       29.94S WCI  17
DUBUQUE        CLOUDY    25  18  74 NE23G36   29.88R WCI  10
MONTICELLO *   CLOUDY    28  23  80 NE17G24   29.90R WCI  16
OELWEIN *      CLOUDY    28  21  74 NE20      29.92F WCI  15
WATERLOO       CLOUDY    30  24  78 NE16      29.94R WCI  19
$$

IAZ064-065-067-068-078-252000-
   EAST CENTRAL IOWA

CITY           SKY/WX    TMP DP  RH WIND       PRES   REMARKS
DAVENPORT      LGT SNOW  29  25  85 NE23      29.83R FOG     WCI  15
IOWA CITY      CLOUDY    30  24  78 N20G25    29.88R WCI  17
MT. PLEASANT * LGT SNOW  30  30 100 N21       29.81R WCI  17
MUSCATINE *    MIX PCPN  32  28  86 NE18G28   29.84R WCI  20
QUAD CITIES    LGT SNOW  30  25  81 NE18G30   29.82R WCI  18
$$

IAZ062-063-075>077-085>089-095>099-252000-
   SOUTHEAST IOWA

CITY           SKY/WX    TMP DP  RH WIND       PRES   REMARKS
BURLINGTON     LGT SNOW  32  30  92 NE21      29.77R FOG     WCI  20
FAIRFIELD *    CLOUDY    32  28  86 N21       29.84R WCI  20
FORT MADISON * CLOUDY    34  30  86 NE13G21   29.78R WCI  25
KEOKUK *       LGT SNOW  32  32 100 N12G24    29.76R WCI  23
OSKALOOSA *    CLOUDY    30  27  86 N22       29.88R WCI  17
CENTERVILLE *  LGT RAIN  32  32 100 N20G26    29.84R WCI  20
OTTUMWA        CLOUDY    31  30  96 N18G25    29.86R WCI  19
WASHINGTON *   PTSUNNY   30  30 100 N25       29.83R WCI  16
$$

ABBREVIATIONS USED IN REMARKS
   TC - TEMPERATURES IN CELSIUS
  WCI - WIND CHILL INDEX
   HX - HEAT INDEX
  VSB - VISIBILITY
$$




USA.gov is the U.S. government's official web portal to all federal, state and local government web resources and services.